COSMOS 252 DEB *, 3686

Orbit data source: Space-Track

COSMOS 252 DEB *, 3686 is space debris in LEO originally from a launch on Fri, 01 Nov 1968 UTC launched from the Tyuratam Missile And Space Complex (TTMTR). Debris objects in space refer to the collection of defunct objects orbiting the Earth. Examples of debris include non-operational satellites, rocket bodies, and fragments generated from explosions, collisions, or faulty payload assembly.

Loading next visibility...
Identifier
3686, 1968-097AD
Orbit
LEO
Country
Flag of CISCIS
Related business
Manufacturer
Unknown
Mission
Spacecraft
Bus & Motor
Unknown
Mass
Unknown
Launch date (UTC)
1968-11-01 (57 years ago)
Launch vehicle
Unknown
Launch site
Tyuratam Missile And Space Complex (TTMTR)
Object type
Payload
Rocket body
Debris
Shape & HBR
Unknown shape, 0.1 m
Radar Cross Section
Small (<0.1 m²)

Expand to show TLE details & history
Last TLE update: 7 hours ago

TLE from 7 hours ago
0 COSMOS 252 DEB *
1  3686U 68097AD  26120.42769580  .00003054  00000-0  28430-2 0  9996
2  3686  62.2629 224.4223 0633101 160.1058 202.5882 13.17716979690470
Epoch: 2026-04-30T10:15Z
TLE epoch observation values (Epoch: 2026-04-30T10:15:52.917Z)
Latitude
-0.00002°
Longitude
-147.92265°
Altitude
1,641.846 km
Speed
6.841 km/s
True Right ascension
14h 57m 41s
True Declination
0° 00' 00"
Sunlit
Object was in full shadow at epoch
Visualization orbit readout
Latitude
Unknown
Longitude
Unknown
Altitude
Unknown
Speed
Unknown
Apparent Right ascension
Unknown
Apparent Declination
Unknown
Sunlit
N/A
Visualization observer readout
Local Sidereal Time
00:35:05
Azimuth
Unknown
Elevation
Unknown
Doppler factor
Unknown
Orbital elements
Apogee altitude
1,671.727 km
Perigee altitude
713.139 km
Semi-major axis
7,570.57 km
Eccentricity
0.06331
Inclination
62.2629°
RAAN
224.4223°
Arg. of periapsis
160.1058°
True anomaly
199.99268°
Mean anomaly
202.5882°
Eccentric anomaly
201.27218°
Mean motion
3.29496 °/min
Orbital period
109.26 mins
BSTAR
0.002843
Loading maneuver chart data...
Computing Atmospheric mass density...
Loading historical data...
Loading historical data...
Loading historical data...
Loading historical data...
Loading historical data...
Loading historical data...
Loading historical data...

Documentation

Showing up to 5 results
|